Weather History for Wheeler AAF, HI

Change the Weather History Date:

Tuesday, March 13, 2012

  Actual Average Record
Temperature  
Mean Temperature 69 °F -  
Max Temperature 73 °F 75 °F 82 °F (2003)
Min Temperature 65 °F 59 °F 55 °F (2009)
Cooling Degree Days 4    
Growing Degree Days 19 (Base 50)    
Moisture  
Dew Point 59 °F    
Average Humidity 69    
Maximum Humidity 78    
Minimum Humidity 59    
Precipitation  
Precipitation 0.00 in - - ()
Sea Level Pressure  
Sea Level Pressure 30.06 in    
Wind  
Wind Speed 8 mph (NNE)    
Max Wind Speed 16 mph    
Max Gust Speed 20 mph    
Visibility 10 miles    
Events Rain    
Averages and records for this station are not official NWS values.
T = Trace of Precipitation, MM = Missing Value Source: NWS Daily Summary

Daily Weather History Graph

Daily Weather History Graph

Search for Another Location

Airport:

Trip Planner

Search our weather history database for the weather conditions in past years. The results will help you decide how hot, cold, wet, or windy it might be!

Date:

Astronomy

Mar. 13, 2012 Rise Set
Actual Time 6:41 AM HST 6:41 PM HST
Civil Twilight 6:19 AM HST 7:03 PM HST
Nautical Twilight 5:53 AM HST 7:29 PM HST
Astronomical Twilight 5:28 AM HST 7:55 PM HST
Moon No Moon Rise 10:53 AM HST (3/13)
Length of Visible Light 12h 43m
Length of Day
11h 59m
Waning Gibbous, 63% of the Moon is Illuminated
Mar 13
Waning Gibbous
Mar 14
Last Quarter
Mar 22
New
Mar 30
First Quarter
Apr 6
Full

Hourly Weather History & Observations

Time (HST) Temp. Dew Point Humidity Pressure Visibility Wind Dir Wind Speed Gust Speed Precip Events Conditions
12:55 AM 66.6 °F 58.1 °F 74% 30.09 in 10.0 mi North 5.8 mph - N/A   Overcast
1:55 AM 66.7 °F 57.2 °F 71% 30.08 in 10.0 mi North 6.9 mph - N/A   Overcast
2:55 AM 66.2 °F 56.1 °F 70% 30.06 in 10.0 mi North 6.9 mph - N/A   Mostly Cloudy
3:55 AM 65.8 °F 55.9 °F 70% 30.05 in 10.0 mi Variable 5.8 mph - N/A   Overcast
4:55 AM 66.0 °F 57.2 °F 73% 30.05 in 10.0 mi North 8.1 mph - N/A   Mostly Cloudy
5:55 AM 65.8 °F 58.1 °F 76% 30.06 in 10.0 mi North 6.9 mph - N/A   Mostly Cloudy
5:57 AM 66.2 °F 59.0 °F 78% 30.06 in 10.0 mi North 6.9 mph - N/A   Overcast
5:58 AM 66.2 °F 59.0 °F 78% 30.06 in 10.0 mi North 5.8 mph - N/A   Overcast
6:02 AM 66.2 °F 59.0 °F 78% 30.06 in 10.0 mi North 6.9 mph - N/A   Overcast
6:55 AM 66.2 °F 57.6 °F 74% 30.07 in 10.0 mi NW 4.6 mph - N/A   Mostly Cloudy
7:55 AM 67.5 °F 55.6 °F 66% 30.08 in 10.0 mi NNW 6.9 mph - N/A   Overcast
8:18 AM 68.0 °F 59.0 °F 73% 30.09 in 10.0 mi North 10.4 mph - N/A   Overcast
8:19 AM 68.0 °F 59.0 °F 73% 30.09 in 10.0 mi North 10.4 mph - N/A   Overcast
8:55 AM 67.6 °F 58.5 °F 72% 30.10 in 10.0 mi Variable 3.5 mph - 0.00 in   Overcast
9:18 AM 68.0 °F 59.0 °F 73% 30.12 in 10.0 mi ENE 5.8 mph - N/A   Overcast
9:36 AM 69.8 °F 59.0 °F 68% 30.11 in 10.0 mi NNE 8.1 mph - N/A   Overcast
9:55 AM 68.5 °F 59.0 °F 72% 30.11 in 10.0 mi North 5.8 mph - N/A   Overcast
10:55 AM 70.5 °F 58.5 °F 66% 30.11 in 10.0 mi ENE 10.4 mph 19.6 mph N/A   Overcast
11:11 AM 71.6 °F 57.2 °F 60% 30.11 in 10.0 mi East 10.4 mph - N/A   Overcast
11:55 AM 72.1 °F 57.9 °F 61% 30.09 in 10.0 mi East 8.1 mph - N/A   Mostly Cloudy
12:55 PM 73.8 °F 58.5 °F 59% 30.06 in 10.0 mi ENE 16.1 mph 19.6 mph N/A   Mostly Cloudy
1:31 PM 71.6 °F 62.6 °F 73% 30.05 in 7.0 mi ENE 12.7 mph - N/A Rain Light Rain
1:33 PM 69.8 °F 62.6 °F 78% 30.05 in 5.0 mi ENE 10.4 mph - N/A Rain Light Rain
1:43 PM 69.8 °F 62.6 °F 78% 30.05 in 7.0 mi ENE 12.7 mph - N/A   Light Drizzle
1:45 PM 69.8 °F 62.6 °F 78% 30.05 in 7.0 mi NE 11.5 mph - N/A   Light Drizzle
1:55 PM 69.1 °F 59.7 °F 72% 30.05 in 10.0 mi NE 15.0 mph - 0.00 in   Overcast
2:41 PM 71.6 °F 59.0 °F 64% 30.03 in 10.0 mi NNE 8.1 mph - N/A   Mostly Cloudy
2:43 PM 71.6 °F 59.0 °F 64% 30.03 in 10.0 mi NNE 8.1 mph - N/A   Mostly Cloudy
2:44 PM 71.6 °F 59.0 °F 64% 30.02 in 10.0 mi NNE 8.1 mph - N/A   Mostly Cloudy
2:46 PM 71.6 °F 59.0 °F 64% 30.03 in 10.0 mi NE 5.8 mph - N/A   Mostly Cloudy
2:51 PM 71.6 °F 59.0 °F 64% 30.03 in 10.0 mi ENE 4.6 mph - N/A   Mostly Cloudy
2:55 PM 71.8 °F 58.1 °F 62% 30.02 in 10.0 mi Variable 6.9 mph - N/A   Mostly Cloudy
3:55 PM 71.8 °F 59.2 °F 64% 30.02 in 10.0 mi NE 8.1 mph - N/A   Mostly Cloudy
3:58 PM 71.6 °F 59.0 °F 64% 30.02 in 10.0 mi NE 8.1 mph - N/A   Mostly Cloudy
4:09 PM 71.6 °F 59.0 °F 64% 30.01 in 10.0 mi NE 12.7 mph - N/A   Mostly Cloudy
4:12 PM 71.6 °F 59.0 °F 64% 30.02 in 10.0 mi NE 12.7 mph - N/A   Mostly Cloudy
4:21 PM 71.6 °F 57.2 °F 60% 30.02 in 10.0 mi ENE 8.1 mph - N/A   Mostly Cloudy
4:55 PM 71.6 °F 57.7 °F 62% 30.02 in 10.0 mi NE 13.8 mph - N/A   Overcast
5:55 PM 70.0 °F 58.3 °F 66% 30.03 in 10.0 mi NE 8.1 mph - N/A   Scattered Clouds
6:23 PM 69.8 °F 59.0 °F 68% 30.04 in 10.0 mi North 9.2 mph - N/A   Mostly Cloudy
6:27 PM 69.8 °F 59.0 °F 68% 30.04 in 10.0 mi NNE 8.1 mph - N/A   Scattered Clouds
6:29 PM 69.8 °F 59.0 °F 68% 30.04 in 10.0 mi North 6.9 mph - N/A   Mostly Cloudy
6:33 PM 69.8 °F 59.0 °F 68% 30.04 in 10.0 mi NE 10.4 mph - N/A   Scattered Clouds
6:55 PM 68.4 °F 59.0 °F 72% 30.04 in 10.0 mi NNE 8.1 mph - N/A   Scattered Clouds
7:55 PM 68.0 °F 58.6 °F 72% 30.06 in 10.0 mi NNE 9.2 mph - N/A   Scattered Clouds
8:55 PM 68.4 °F 58.8 °F 71% 30.08 in 10.0 mi NNE 6.9 mph - N/A   Overcast
9:55 PM 68.0 °F 58.8 °F 72% 30.09 in 10.0 mi NE 4.6 mph - N/A   Overcast
10:55 PM 67.8 °F 58.8 °F 73% 30.09 in 10.0 mi NNE 9.2 mph - N/A   Overcast
11:55 PM 67.3 °F 58.1 °F 72% 30.09 in 10.0 mi NNE 6.9 mph - N/A   Mostly Cloudy